GW5308 Weather Reports


Display with metric or nautical units.
time (UTC)temp
F
wind
direction
speed
MPH
gust
MPH
rain 1hr
in
rain 24hr
in
rain mn
in
humidity
%
barometer
mb
20260506211534 94 0 0.0 1.0 0.00 0.00 0.00 43 1013.7
20260506211015 94 243 0.0 3.0 0.00 0.00 0.00 44 1013.7
20260506210516 94 0 0.0 3.0 0.00 0.00 0.00 43 1013.7
20260506210037 94 214 0.0 2.0 0.00 0.00 0.00 44 1013.7
20260506205514 94 0 0.0 2.0 0.00 0.00 0.00 44 1013.7
20260506205016 94 253 0.0 2.0 0.00 0.00 0.00 42 1013.7
20260506204547 94 211 0.0 2.0 0.00 0.00 0.00 44 1013.7
20260506204017 93 163 0.0 1.0 0.00 0.00 0.00 44 1013.8
20260506203518 93 241 0.0 2.0 0.00 0.00 0.00 43 1013.8
20260506203034 93 242 0.0 2.0 0.00 0.00 0.00 45 1013.9
20260506202514 93 246 0.0 2.0 0.00 0.00 0.00 43 1013.9
20260506202014 93 0 0.0 2.0 0.00 0.00 0.00 44 1014.0
20260506201535 93 240 0.0 2.0 0.00 0.00 0.00 43 1014.0
20260506201014 93 0 0.0 2.0 0.00 0.00 0.00 41 1014.0
20260506200513 94 224 0.0 1.0 0.00 0.00 0.00 41 1013.9
20260506200034 93 245 0.0 2.0 0.00 0.00 0.00 43 1014.0
20260506195514 93 297 0.0 3.0 0.00 0.00 0.00 44 1014.0
20260506195019 93 320 0.0 3.0 0.00 0.00 0.00 43 1014.1
20260506194534 93 238 0.0 2.0 0.00 0.00 0.00 43 1014.1
20260506194014 93 216 0.0 3.0 0.00 0.00 0.00 44 1014.3
20260506193512 93 231 0.0 3.0 0.00 0.00 0.00 44 1014.4
20260506193031 93 42 1.0 4.0 0.00 0.00 0.00 44 1014.4
20260506192513 93 241 1.0 4.0 0.00 0.00 0.00 44 1014.4
20260506192014 93 0 1.0 4.0 0.00 0.00 0.00 41 1014.5
20260506191534 94 337 0.0 4.0 0.00 0.00 0.00 41 1014.7
20260506191012 93 0 0.0 4.0 0.00 0.00 0.00 43 1014.8
20260506190511 93 91 1.0 4.0 0.00 0.00 0.00 40 1014.9
20260506190033 93 40 0.0 4.0 0.00 0.00 0.00 44 1015.0
20260506185514 92 37 0.0 4.0 0.00 0.00 0.00 45 1015.1
20260506185014 93 15 1.0 3.0 0.00 0.00 0.00 43 1015.0
20260506184532 93 10 0.0 3.0 0.00 0.00 0.00 46 1015.2
20260506184014 93 60 1.0 4.0 0.00 0.00 0.00 45 1015.2
20260506183514 92 266 1.0 4.0 0.00 0.00 0.00 46 1015.2
20260506183030 92 209 1.0 3.0 0.00 0.00 0.00 45 1015.2
20260506182513 92 285 0.0 3.0 0.00 0.00 0.00 45 1015.3
20260506182016 91 262 0.0 5.0 0.00 0.00 0.00 50 1015.2
20260506181532 91 0 0.0 5.0 0.00 0.00 0.00 47 1015.3
20260506181014 91 224 1.0 3.0 0.00 0.00 0.00 47 1015.5
20260506180517 91 3 0.0 3.0 0.00 0.00 0.00 46 1015.5
20260506180032 91 242 0.0 4.0 0.00 0.00 0.00 48 1015.5
20260506175511 91 124 2.0 4.0 0.00 0.00 0.00 47 1015.5
20260506175010 90 248 0.0 4.0 0.00 0.00 0.00 50 1015.5
20260506174533 90 304 1.0 5.0 0.00 0.00 0.00 49 1015.8
20260506174017 91 117 1.0 5.0 0.00 0.00 0.00 50 1015.8
20260506173513 90 178 0.0 4.0 0.00 0.00 0.00 51 1015.7
20260506173032 90 31 1.0 4.0 0.00 0.00 0.00 51 1015.7
20260506172514 90 127 1.0 4.0 0.00 0.00 0.00 52 1015.7
20260506172014 90 0 0.0 4.0 0.00 0.00 0.00 53 1015.8
20260506171540 90 37 0.0 4.0 0.00 0.00 0.00 55 1015.8
20260506171015 89 234 0.0 4.0 0.00 0.00 0.00 55 1015.9
20260506170514 89 11 0.0 3.0 0.00 0.00 0.00 55 1016.0
20260506170043 89 0 1.0 3.0 0.00 0.00 0.00 55 1016.1
20260506165514 88 0 0.0 3.0 0.00 0.00 0.00 55 1016.2
20260506165014 88 257 1.0 3.0 0.00 0.00 0.00 56 1016.4
20260506164539 89 226 0.0 2.0 0.00 0.00 0.00 57 1016.4
20260506164014 88 215 0.0 2.0 0.00 0.00 0.00 55 1016.4
20260506163518 88 242 1.0 2.0 0.00 0.00 0.00 52 1016.6
20260506163033 88 0 0.0 2.0 0.00 0.00 0.00 56 1016.6
20260506162513 88 229 0.0 2.0 0.00 0.00 0.00 59 1016.7
20260506162019 87 221 0.0 4.0 0.00 0.00 0.00 59 1016.7
20260506161539 88 241 1.0 4.0 0.00 0.00 0.00 59 1016.7
20260506161016 88 0 0.0 2.0 0.00 0.00 0.00 58 1016.8
20260506160518 87 165 0.0 2.0 0.00 0.00 0.00 60 1016.8
20260506160042 87 234 0.0 2.0 0.00 0.00 0.00 61 1016.7
20260506155516 86 226 0.0 3.0 0.00 0.00 0.00 63 1016.7
20260506155014 86 293 1.0 3.0 0.00 0.00 0.00 62 1016.7
20260506154533 86 155 1.0 4.0 0.00 0.00 0.00 60 1016.7
20260506154016 86 0 0.0 4.0 0.00 0.00 0.00 65 1016.7
20260506153517 86 257 0.0 3.0 0.00 0.00 0.00 62 1016.8
20260506153034 86 241 0.0 2.0 0.00 0.00 0.00 65 1016.8
20260506152514 85 258 1.0 3.0 0.00 0.00 0.00 67 1016.7
20260506152015 85 251 0.0 3.0 0.00 0.00 0.00 65 1016.7
20260506151545 85 259 0.0 3.0 0.00 0.00 0.00 65 1016.7
20260506151015 85 274 1.0 3.0 0.00 0.00 0.00 66 1016.6
20260506150519 84 230 0.0 3.0 0.00 0.00 0.00 66 1016.6
20260506150034 84 217 1.0 3.0 0.00 0.00 0.00 67 1016.5
20260506145516 84 209 0.0 3.0 0.00 0.00 0.00 67 1016.6
20260506145019 83 263 1.0 3.0 0.00 0.00 0.00 70 1016.5
20260506144534 83 269 0.0 3.0 0.00 0.00 0.00 69 1016.5
20260506144025 83 233 1.0 4.0 0.00 0.00 0.00 70 1016.7
20260506143519 83 0 0.0 4.0 0.00 0.00 0.00 69 1016.6
20260506143043 82 218 1.0 3.0 0.00 0.00 0.00 71 1016.5
20260506142514 82 255 0.0 3.0 0.00 0.00 0.00 73 1016.5
20260506142014 83 115 0.0 2.0 0.00 0.00 0.00 72 1016.5
20260506141532 83 257 0.0 2.0 0.00 0.00 0.00 71 1016.5
20260506141014 82 0 0.0 3.0 0.00 0.00 0.00 74 1016.4
20260506140516 81 0 0.0 3.0 0.00 0.00 0.00 74 1016.4
20260506140038 81 0 1.0 3.0 0.00 0.00 0.00 75 1016.4
20260506135515 81 0 0.0 3.0 0.00 0.00 0.00 78 1016.4
20260506135020 80 258 0.0 3.0 0.00 0.00 0.00 80 1016.4
20260506134534 79 267 0.0 3.0 0.00 0.00 0.00 80 1016.4
20260506134017 79 255 0.0 3.0 0.00 0.00 0.00 81 1016.3
20260506133515 79 37 0.0 3.0 0.00 0.00 0.00 81 1016.3
20260506133034 78 266 0.0 3.0 0.00 0.00 0.00 82 1016.2
20260506132520 78 0 0.0 2.0 0.00 0.00 0.00 84 1016.2
20260506132016 77 0 0.0 2.0 0.00 0.00 0.00 85 1016.2
20260506131533 76 0 0.0 3.0 0.00 0.00 0.00 87 1016.1
20260506131017 75 235 0.0 3.0 0.00 0.00 0.00 88 1016.1
20260506130519 75 0 0.0 2.0 0.00 0.00 0.00 91 1016.1
20260506130033 73 0 0.0 2.0 0.00 0.00 0.00 93 1016.2
20260506125516 72 0 0.0 2.0 0.00 0.00 0.00 95 1016.2
20260506125018 70 0 0.0 2.0 0.00 0.00 0.00 98 1016.2
20260506124531 69 0 0.0 0.0 0.00 0.00 0.00 100 1016.2
20260506124015 68 0 0.0 0.0 0.00 0.00 0.00 100 1016.2
20260506123515 66 0 0.0 0.0 0.00 0.00 0.00 100 1016.1
20260506123034 66 0 0.0 0.0 0.00 0.00 0.00 100 1016.1
20260506122514 65 0 0.0 0.0 0.00 0.00 0.00 100 1016.1
20260506122014 65 0 0.0 0.0 0.00 0.00 0.00 100 1016.0
20260506121534 64 0 0.0 0.0 0.00 0.00 0.00 100 1015.9
20260506121015 63 0 0.0 0.0 0.00 0.00 0.00 100 1015.9
20260506120518 63 0 0.0 0.0 0.00 0.00 0.00 100 1016.0
20260506120033 62 0 0.0 0.0 0.00 0.00 0.00 100 1015.9
20260506115515 61 0 0.0 0.0 0.00 0.00 0.00 100 1015.8
20260506115017 61 0 0.0 0.0 0.00 0.00 0.00 100 1015.9
20260506114541 60 0 0.0 0.0 0.00 0.00 0.00 100 1015.8
20260506114014 60 0 0.0 0.0 0.00 0.00 0.00 100 1015.8
20260506113515 59 0 0.0 0.0 0.00 0.00 0.00 100 1015.7
20260506113032 59 0 0.0 0.0 0.00 0.00 0.00 100 1015.7
20260506112516 58 0 0.0 0.0 0.00 0.00 0.00 100 1015.6
20260506112015 58 0 0.0 0.0 0.00 0.00 0.00 100 1015.6
20260506111534 58 0 0.0 0.0 0.00 0.00 0.00 100 1015.5
20260506111015 57 0 0.0 0.0 0.00 0.00 0.00 100 1015.4
20260506110520 57 0 0.0 0.0 0.00 0.00 0.00 100 1015.3
20260506110037 57 0 0.0 0.0 0.00 0.00 0.00 100 1015.4
20260506105515 56 0 0.0 0.0 0.00 0.00 0.00 100 1015.3
20260506105015 56 0 0.0 0.0 0.00 0.00 0.00 100 1015.2
20260506104534 57 0 0.0 0.0 0.00 0.00 0.00 100 1015.1
20260506104013 57 0 0.0 0.0 0.00 0.00 0.00 100 1015.1
20260506103514 57 0 0.0 0.0 0.00 0.00 0.00 100 1015.1
20260506103034 57 0 0.0 0.0 0.00 0.00 0.00 100 1015.0
20260506102514 57 0 0.0 0.0 0.00 0.00 0.00 100 1015.1
20260506102016 57 0 0.0 0.0 0.00 0.00 0.00 100 1015.1
20260506101547 57 0 0.0 0.0 0.00 0.00 0.00 100 1015.0
20260506101016 57 0 0.0 0.0 0.00 0.00 0.00 100 1014.9
20260506100518 57 0 0.0 0.0 0.00 0.00 0.00 100 1014.9
20260506100032 57 0 0.0 0.0 0.00 0.00 0.00 100 1015.0
20260506095515 57 0 0.0 0.0 0.00 0.00 0.00 100 1014.9
20260506095015 56 0 0.0 0.0 0.00 0.00 0.00 100 1014.9
20260506094540 56 0 0.0 0.0 0.00 0.00 0.00 100 1015.0
20260506094017 56 0 0.0 0.0 0.00 0.00 0.00 100 1014.9
20260506093515 57 0 0.0 0.0 0.00 0.00 0.00 100 1015.0
20260506093035 57 0 0.0 0.0 0.00 0.00 0.00 100 1014.9
20260506092516 57 0 0.0 0.0 0.00 0.00 0.00 100 1014.9
20260506092019 57 0 0.0 0.0 0.00 0.00 0.00 100 1014.9
20260506091533 57 0 0.0 0.0 0.00 0.00 0.00 100 1015.0
20260506091014 57 0 0.0 0.0 0.00 0.00 0.00 100 1014.7
20260506090515 56 0 0.0 0.0 0.00 0.00 0.00 100 1014.7
20260506090036 56 0 0.0 0.0 0.00 0.00 0.00 100 1014.7
20260506085515 56 0 0.0 0.0 0.00 0.00 0.00 99 1014.7
20260506085014 57 0 0.0 0.0 0.00 0.00 0.00 100 1014.7
20260506084533 57 0 0.0 0.0 0.00 0.00 0.00 100 1014.6
20260506084016 57 0 0.0 0.0 0.00 0.00 0.00 100 1014.7
20260506083517 57 0 0.0 0.0 0.00 0.00 0.00 99 1014.6
20260506083032 57 0 0.0 0.0 0.00 0.00 0.00 99 1014.6
20260506082516 57 0 0.0 0.0 0.00 0.00 0.00 100 1014.7
20260506082018 57 0 0.0 0.0 0.00 0.00 0.00 99 1014.8
20260506081531 57 0 0.0 0.0 0.00 0.00 0.00 100 1014.9
20260506081018 57 0 0.0 0.0 0.00 0.00 0.00 100 1014.9
20260506080520 56 0 0.0 0.0 0.00 0.00 0.00 99 1014.8
20260506073516 57 0 0.0 0.0 0.00 0.00 0.00 99 1014.6
20260506073041 57 0 0.0 0.0 0.00 0.00 0.00 99 1014.9
20260506072518 57 0 0.0 0.0 0.00 0.00 0.00 99 1014.9
20260506072017 57 0 0.0 0.0 0.00 0.00 0.00 99 1015.0
20260506071533 57 0 0.0 0.0 0.00 0.00 0.00 99 1014.9
20260506071016 57 0 0.0 0.0 0.00 0.00 0.00 99 1014.8
20260506070515 57 0 0.0 0.0 0.00 0.00 0.00 99 1014.9
20260506062017 58 0 0.0 0.0 0.00 0.00 0.00 98 1015.2
20260506061535 58 0 0.0 0.0 0.00 0.00 0.00 98 1015.4
20260506061019 58 0 0.0 0.0 0.00 0.00 0.00 98 1015.4
20260506060514 58 0 0.0 0.0 0.00 0.00 0.00 97 1015.4
20260506051017 59 0 0.0 0.0 0.00 0.00 0.00 97 1015.8
20260506050521 58 0 0.0 0.0 0.00 0.00 0.00 96 1015.8
20260506045014 59 0 0.0 0.0 0.00 0.00 0.00 95 1016.1
20260506044535 59 0 0.0 0.0 0.00 0.00 0.00 95 1016.1
20260506044021 59 0 0.0 0.0 0.00 0.00 0.00 95 1016.2
20260506043516 60 0 0.0 0.0 0.00 0.00 0.00 95 1016.3
20260506043034 60 0 0.0 0.0 0.00 0.00 0.00 95 1016.2
20260506042515 60 0 0.0 0.0 0.00 0.00 0.00 95 1016.1
20260506042022 60 0 0.0 0.0 0.00 0.00 0.00 95 1016.2
20260506041542 60 0 0.0 0.0 0.00 0.00 0.00 94 1016.2
20260506041017 60 0 0.0 0.0 0.00 0.00 0.00 94 1016.1
20260506040522 60 0 0.0 0.0 0.00 0.00 0.00 93 1016.1
20260506040031 60 0 0.0 0.0 0.00 0.00 0.00 93 1015.9
20260506035518 61 0 0.0 0.0 0.00 0.00 0.00 93 1016.0
20260506035016 61 0 0.0 0.0 0.00 0.00 0.00 92 1015.8
20260506034536 61 0 0.0 0.0 0.00 0.00 0.00 92 1015.8
20260506034014 61 0 0.0 0.0 0.00 0.00 0.00 92 1015.8
20260506033515 61 0 0.0 0.0 0.00 0.00 0.00 91 1015.7
20260506033035 61 0 0.0 0.0 0.00 0.00 0.00 92 1015.6
20260506032518 61 0 0.0 0.0 0.00 0.00 0.00 92 1015.5
20260506032014 61 0 0.0 0.0 0.00 0.00 0.00 92 1015.5
20260506031532 61 0 0.0 0.0 0.00 0.00 0.00 91 1015.4
20260506031016 61 0 0.0 0.0 0.00 0.00 0.00 90 1015.3
20260506030517 62 0 0.0 0.0 0.00 0.00 0.00 91 1015.3
20260506030034 62 0 0.0 0.0 0.00 0.00 0.00 91 1015.2
20260506025515 62 0 0.0 0.0 0.00 0.00 0.00 91 1015.2
20260506025015 62 0 0.0 0.0 0.00 0.00 0.00 90 1015.2
20260506024535 62 0 0.0 0.0 0.00 0.00 0.00 90 1015.2
20260506024014 62 0 0.0 0.0 0.00 0.00 0.00 89 1015.3
20260506023516 62 0 0.0 0.0 0.00 0.00 0.00 88 1015.2
20260506023033 62 0 0.0 0.0 0.00 0.00 0.00 89 1015.2
20260506022517 62 0 0.0 0.0 0.00 0.00 0.00 88 1015.2
20260506022014 62 0 0.0 0.0 0.00 0.00 0.00 88 1015.3
20260506021534 63 0 0.0 0.0 0.00 0.00 0.00 87 1015.3
20260506021016 63 0 0.0 0.0 0.00 0.00 0.00 86 1015.4
20260506020515 63 0 0.0 0.0 0.00 0.00 0.00 85 1015.4
20260506020032 64 0 0.0 0.0 0.00 0.00 0.00 85 1015.3
20260506015515 64 0 0.0 0.0 0.00 0.00 0.00 84 1015.3
20260506015017 64 0 0.0 0.0 0.00 0.00 0.00 84 1015.2
20260506014544 65 0 0.0 0.0 0.00 0.00 0.00 82 1015.2
20260506014013 65 0 0.0 0.0 0.00 0.00 0.00 83 1015.1
20260506013513 65 0 0.0 0.0 0.00 0.00 0.00 80 1015.2
20260506013032 66 0 0.0 0.0 0.00 0.00 0.00 80 1015.1
20260506012513 66 0 0.0 0.0 0.00 0.00 0.00 79 1015.1
20260506012014 67 0 0.0 0.0 0.00 0.00 0.00 78 1015.2
20260506011534 67 0 0.0 0.0 0.00 0.00 0.00 77 1015.2
20260506011015 68 0 0.0 0.0 0.00 0.00 0.00 77 1015.2
20260506010513 68 0 0.0 0.0 0.00 0.00 0.00 76 1015.1
20260506010031 69 0 0.0 0.0 0.00 0.00 0.00 75 1015.1
20260506005513 69 0 0.0 0.0 0.00 0.00 0.00 74 1015.0
20260506005015 70 0 0.0 0.0 0.00 0.00 0.00 72 1014.9
20260506004538 70 0 0.0 0.0 0.00 0.00 0.00 71 1014.9
20260506004013 71 0 0.0 0.0 0.00 0.00 0.00 70 1014.9
20260506003517 71 0 0.0 1.0 0.00 0.00 0.00 70 1014.7
20260506003030 71 0 0.0 1.0 0.00 0.00 0.00 69 1014.7
20260506002513 72 0 0.0 1.0 0.00 0.00 0.00 69 1014.6
20260506002015 72 0 0.0 1.0 0.00 0.00 0.00 68 1014.6
20260506001534 72 0 0.0 1.0 0.00 0.00 0.00 67 1014.5
20260506001011 73 0 0.0 1.0 0.00 0.00 0.00 67 1014.6
20260506000514 73 0 0.0 1.0 0.00 0.00 0.00 66 1014.5
20260506000040 73 277 0.0 1.0 0.00 0.00 0.00 66 1014.5
20260505235515 74 0 0.0 1.0 0.00 0.00 0.00 65 1014.5
20260505235013 74 0 0.0 2.0 0.00 0.00 0.00 64 1014.3
20260505234536 74 0 0.0 2.0 0.00 0.00 0.00 64 1014.3
20260505234014 75 350 0.0 6.0 0.00 0.00 0.00 63 1014.2
20260505233516 75 0 0.0 6.0 0.00 0.00 0.00 62 1014.4
20260505233033 75 0 0.0 6.0 0.00 0.00 0.00 62 1014.3
20260505232514 76 167 1.0 4.0 0.00 0.00 0.00 61 1014.2
20260505232015 76 279 1.0 5.0 0.00 0.00 0.00 61 1014.2
20260505231531 76 309 1.0 5.0 0.00 0.00 0.00 60 1014.3
20260505231011 76 356 1.0 7.0 0.00 0.00 0.00 60 1014.2
20260505230516 77 317 1.0 7.0 0.00 0.00 0.00 60 1014.2
20260505230034 77 297 1.0 5.0 0.00 0.00 0.00 59 1014.3
20260505225513 77 4 1.0 5.0 0.00 0.00 0.00 58 1014.2
20260505225013 78 259 0.0 4.0 0.00 0.00 0.00 58 1014.3
20260505224537 78 40 1.0 4.0 0.00 0.00 0.00 58 1014.3
20260505224013 78 319 1.0 4.0 0.00 0.00 0.00 57 1014.4
20260505223517 79 4 1.0 4.0 0.00 0.00 0.00 57 1014.3
20260505223456 79 46 0.0 6.0 0.00 0.00 0.00 57 1014.2
20260505221532 80 5 0.0 5.0 0.00 0.00 0.00 56 1014.1
20260505221015 80 343 1.0 6.0 0.00 0.00 0.00 56 1014.3
20260505220514 80 18 1.0 6.0 0.00 0.00 0.00 55 1014.3
20260505220041 80 9 2.0 7.0 0.00 0.00 0.00 55 1014.4
20260505215516 81 321 1.0 7.0 0.00 0.00 0.00 56 1014.3
20260505215014 81 23 2.0 6.0 0.00 0.00 0.00 54 1014.2
20260505214554 81 316 1.0 6.0 0.00 0.00 0.00 55 1014.2
20260505214015 81 46 1.0 6.0 0.00 0.00 0.00 54 1014.3
20260505213514 81 30 2.0 6.0 0.00 0.00 0.00 54 1014.3
20260505213050 81 53 2.0 6.0 0.00 0.00 0.00 54 1014.2
20260505212514 81 288 2.0 6.0 0.00 0.00 0.00 55 1014.3
20260505212016 82 356 2.0 5.0 0.00 0.00 0.00 54 1014.3